User: anonymous   Login
Location: Byszew
(52.1813°N, 19.2693°E)
Time: 19:36:20
(UTC+00:00)
Language:

Cosmos 1602 - Orbit

View from above orbital plane
View from above orbital plane
View from above satellite
View from above satellite

Ground track
Ground track

The orbit data is extracted from the following two-line orbital elements,

1 15331U 84105A   21335.52500376  .00001076  00000-0  56279-4 0  9990
2 15331  82.5367 167.7357 0015803  61.9140 298.3688 15.14699730 27907
Epoch (UTC): 01 December 2021 12:36:00
Eccentricity: 0.0015803
inclination: 82.5367°
perigee height: 511 km
apogee height: 533 km
right ascension of ascending node: 167.7357°
argument of perigee: 61.9140°
revolutions per day: 15.14699730
mean anomaly at epoch: 298.3688°
orbit number at epoch: 2790

The dashed part of the orbit path shows where the satellite is in the earth's shadow,  

DLR